Time,TemperatureF,DewpointF,PressureIn,WindDirection,WindDirectionDegrees,WindSpeedMPH,WindSpeedGustMPH,Humidity,HourlyPrecipIn,Conditions,Clouds,dailyrainin,SoftwareType,DateUTC
2013-03-15 00:00:00,14.1,7.7,29.94,NW,315,0.0,0.0,75,0.00,,---,0.00,VWS V14.01,2013-03-15 04:00:00,
2013-03-15 00:05:00,14.1,7.7,29.94,NW,315,0.0,0.0,75,0.00,,---,0.00,VWS V14.01,2013-03-15 04:05:00,
2013-03-15 00:10:00,14.1,7.7,29.94,NW,315,0.0,0.0,75,0.00,,---,0.00,VWS V14.01,2013-03-15 04:10:00,
2013-03-15 00:15:00,14.1,7.7,29.94,NW,315,0.0,0.0,75,0.00,,---,0.00,VWS V14.01,2013-03-15 04:15:00,
2013-03-15 00:20:00,14.1,7.7,29.94,NW,315,0.0,0.0,75,0.00,,---,0.00,VWS V14.01,2013-03-15 04:20:00,
2013-03-15 00:26:00,14.1,7.7,29.94,SE,135,0.0,0.0,75,0.00,,---,0.00,VWS V14.01,2013-03-15 04:26:00,
2013-03-15 00:31:00,14.1,7.7,29.94,NW,315,2.2,2.2,75,0.00,,---,0.00,VWS V14.01,2013-03-15 04:31:00,
2013-03-15 00:36:00,14.1,7.7,29.94,NW,315,0.0,0.0,75,0.00,,---,0.00,VWS V14.01,2013-03-15 04:36:00,
2013-03-15 00:41:00,13.8,7.4,29.94,NW,315,0.0,0.0,75,0.00,,---,0.00,VWS V14.01,2013-03-15 04:41:00,
2013-03-15 00:46:00,13.8,7.4,29.94,NW,315,0.0,0.0,75,0.00,,---,0.00,VWS V14.01,2013-03-15 04:46:00,
2013-03-15 00:51:00,13.8,7.4,29.94,NNW,338,0.0,0.0,75,0.00,,---,0.00,VWS V14.01,2013-03-15 04:51:00,
2013-03-15 01:00:00,13.8,7.1,29.95,WNW,292,0.0,0.0,74,0.00,,---,0.00,VWS V14.01,2013-03-15 05:00:00,
2013-03-15 01:05:00,13.6,6.9,29.95,NNW,338,0.0,0.0,74,0.00,,---,0.00,VWS V14.01,2013-03-15 05:05:00,
2013-03-15 01:10:00,13.6,6.9,29.95,NNW,338,0.0,0.0,74,0.00,,---,0.00,VWS V14.01,2013-03-15 05:10:00,
2013-03-15 01:15:00,13.6,6.9,29.95,NW,315,0.0,0.0,74,0.00,,---,0.00,VWS V14.01,2013-03-15 05:15:00,
2013-03-15 01:20:00,13.2,6.5,29.95,WNW,292,0.0,0.0,74,0.00,,---,0.00,VWS V14.01,2013-03-15 05:20:00,
2013-03-15 01:25:00,13.2,6.5,29.95,NW,315,0.0,0.0,74,0.00,,---,0.00,VWS V14.01,2013-03-15 05:25:00,
2013-03-15 01:30:00,13.2,6.5,29.95,NNW,338,0.0,0.0,74,0.00,,---,0.00,VWS V14.01,2013-03-15 05:30:00,
2013-03-15 01:35:00,13.1,6.4,29.95,NNW,338,0.0,0.0,74,0.00,,---,0.00,VWS V14.01,2013-03-15 05:35:00,
2013-03-15 01:40:00,12.9,6.2,29.95,NW,315,0.0,0.0,74,0.00,,---,0.00,VWS V14.01,2013-03-15 05:40:00,
2013-03-15 01:45:00,12.9,6.2,29.96,NNW,338,0.0,0.0,74,0.00,,---,0.00,VWS V14.01,2013-03-15 05:45:00,
2013-03-15 01:50:00,12.7,6.0,29.95,WNW,292,0.0,0.0,74,0.00,,---,0.00,VWS V14.01,2013-03-15 05:50:00,
2013-03-15 01:55:00,12.7,6.0,29.95,NNW,338,0.0,0.0,74,0.00,,---,0.00,VWS V14.01,2013-03-15 05:55:00,
2013-03-15 02:00:00,12.7,6.0,29.95,NNW,338,0.0,0.0,74,0.00,,---,0.00,VWS V14.01,2013-03-15 06:00:00,
2013-03-15 02:05:00,12.7,6.0,29.96,NW,315,3.8,3.8,74,0.00,,---,0.00,VWS V14.01,2013-03-15 06:05:00,
2013-03-15 02:10:00,12.5,5.8,29.95,NW,315,4.4,4.4,74,0.00,,---,0.00,VWS V14.01,2013-03-15 06:10:00,
2013-03-15 02:15:00,12.5,5.8,29.96,NNW,338,0.0,0.0,74,0.00,,---,0.00,VWS V14.01,2013-03-15 06:15:00,
2013-03-15 02:20:00,12.3,5.6,29.96,NNW,338,0.0,0.0,74,0.00,,---,0.00,VWS V14.01,2013-03-15 06:20:00,
2013-03-15 02:25:00,12.3,5.3,29.96,NW,315,0.0,0.0,73,0.00,,---,0.00,VWS V14.01,2013-03-15 06:25:00,
2013-03-15 02:30:00,12.3,5.3,29.95,NW,315,0.0,0.0,73,0.00,,---,0.00,VWS V14.01,2013-03-15 06:30:00,
2013-03-15 02:35:00,12.2,5.2,29.95,NW,315,0.0,0.0,73,0.00,,---,0.00,VWS V14.01,2013-03-15 06:35:00,
2013-03-15 02:40:00,12.2,5.5,29.95,NW,315,0.0,0.0,74,0.00,,---,0.00,VWS V14.01,2013-03-15 06:40:00,
2013-03-15 02:45:00,12.2,5.5,29.95,NW,315,0.0,0.0,74,0.00,,---,0.00,VWS V14.01,2013-03-15 06:45:00,
2013-03-15 02:50:00,12.2,5.5,29.94,NW,315,0.0,0.0,74,0.00,,---,0.00,VWS V14.01,2013-03-15 06:50:00,
2013-03-15 02:55:00,12.2,5.5,29.95,NW,315,0.0,0.0,74,0.00,,---,0.00,VWS V14.01,2013-03-15 06:55:00,
2013-03-15 03:00:00,12.2,5.5,29.95,NW,315,0.0,0.0,74,0.00,,---,0.00,VWS V14.01,2013-03-15 07:00:00,
2013-03-15 03:05:00,12.0,5.3,29.94,NW,315,0.0,0.0,74,0.00,,---,0.00,VWS V14.01,2013-03-15 07:05:00,
2013-03-15 03:10:00,12.0,5.3,29.94,NW,315,0.0,0.0,74,0.00,,---,0.00,VWS V14.01,2013-03-15 07:10:00,
2013-03-15 03:15:00,12.0,5.3,29.94,NW,315,0.0,0.0,74,0.00,,---,0.00,VWS V14.01,2013-03-15 07:15:00,
2013-03-15 03:20:00,12.0,5.3,29.94,NW,315,0.0,0.0,74,0.00,,---,0.00,VWS V14.01,2013-03-15 07:20:00,
2013-03-15 03:25:00,11.8,5.1,29.94,NW,315,0.0,0.0,74,0.00,,---,0.00,VWS V14.01,2013-03-15 07:25:00,
2013-03-15 03:30:00,11.8,5.1,29.94,NW,315,0.0,0.0,74,0.00,,---,0.00,VWS V14.01,2013-03-15 07:30:00,
2013-03-15 03:35:00,11.8,5.1,29.94,NW,315,0.0,0.0,74,0.00,,---,0.00,VWS V14.01,2013-03-15 07:35:00,
2013-03-15 06:18:00,8.6,2.3,29.89,NW,315,0.0,0.0,75,0.00,,---,0.00,VWS V14.01,2013-03-15 10:18:00,
2013-03-15 06:23:00,8.4,2.1,29.89,NW,315,0.0,0.0,75,0.00,,---,0.00,VWS V14.01,2013-03-15 10:23:00,
2013-03-15 06:28:00,8.4,2.1,29.89,NW,315,0.0,0.0,75,0.00,,---,0.00,VWS V14.01,2013-03-15 10:28:00,
2013-03-15 06:33:00,8.4,2.1,29.89,East,90,0.0,0.0,75,0.00,,---,0.00,VWS V14.01,2013-03-15 10:33:00,
2013-03-15 06:38:00,8.2,1.9,29.89,East,90,0.0,0.0,75,0.00,,---,0.00,VWS V14.01,2013-03-15 10:38:00,
2013-03-15 06:43:00,8.0,2.0,29.89,East,90,0.0,0.0,76,0.00,,---,0.00,VWS V14.01,2013-03-15 10:43:00,
2013-03-15 06:48:00,8.0,2.0,29.88,East,90,0.0,0.0,76,0.00,,---,0.00,VWS V14.01,2013-03-15 10:48:00,
2013-03-15 06:53:00,7.8,1.8,29.88,East,90,0.0,0.0,76,0.00,,---,0.00,VWS V14.01,2013-03-15 10:53:00,
2013-03-15 06:58:00,7.7,1.7,29.88,East,90,0.0,0.0,76,0.00,,---,0.00,VWS V14.01,2013-03-15 10:58:00,
2013-03-15 07:03:00,7.7,1.7,29.88,East,90,0.0,0.0,76,0.00,,---,0.00,VWS V14.01,2013-03-15 11:03:00,
2013-03-15 07:08:00,7.5,1.5,29.88,East,90,0.0,0.0,76,0.00,,---,0.00,VWS V14.01,2013-03-15 11:08:00,
2013-03-15 07:13:00,7.5,1.2,29.88,East,90,0.0,0.0,75,0.00,,---,0.00,VWS V14.01,2013-03-15 11:13:00,
2013-03-15 07:18:00,7.5,1.2,29.88,East,90,0.0,0.0,75,0.00,,---,0.00,VWS V14.01,2013-03-15 11:18:00,
2013-03-15 07:23:00,7.3,1.0,29.88,East,90,0.0,0.0,75,0.00,,---,0.00,VWS V14.01,2013-03-15 11:23:00,
2013-03-15 07:28:00,7.1,0.9,29.87,ENE,68,0.0,0.0,75,0.00,,---,0.00,VWS V14.01,2013-03-15 11:28:00,
2013-03-15 07:33:00,6.9,0.7,29.87,ENE,68,0.0,0.0,75,0.00,,---,0.00,VWS V14.01,2013-03-15 11:33:00,
2013-03-15 07:38:00,6.9,0.7,29.87,NE,45,0.0,0.0,75,0.00,,---,0.00,VWS V14.01,2013-03-15 11:38:00,
2013-03-15 07:43:00,6.9,0.7,29.87,NE,45,0.0,0.0,75,0.00,,---,0.00,VWS V14.01,2013-03-15 11:43:00,
2013-03-15 07:48:00,6.8,0.6,29.86,NE,45,0.0,0.0,75,0.00,,---,0.00,VWS V14.01,2013-03-15 11:48:00,
2013-03-15 07:53:00,6.6,0.7,29.86,NE,45,0.0,0.0,76,0.00,,---,0.00,VWS V14.01,2013-03-15 11:53:00,
2013-03-15 07:58:00,6.6,0.7,29.86,NE,45,0.0,0.0,76,0.00,,---,0.00,VWS V14.01,2013-03-15 11:58:00,
2013-03-15 08:03:00,6.6,0.7,29.86,NE,45,0.0,0.0,76,0.00,,---,0.00,VWS V14.01,2013-03-15 12:03:00,
2013-03-15 08:08:00,6.6,0.7,29.86,NE,45,0.0,0.0,76,0.00,,---,0.00,VWS V14.01,2013-03-15 12:08:00,
2013-03-15 08:13:00,6.6,0.7,29.86,NE,45,0.0,0.0,76,0.00,,---,0.00,VWS V14.01,2013-03-15 12:13:00,
2013-03-15 08:18:00,6.6,0.7,29.85,NE,45,0.0,0.0,76,0.00,,---,0.00,VWS V14.01,2013-03-15 12:18:00,
2013-03-15 08:24:00,6.9,0.9,29.86,NE,45,0.0,0.0,76,0.00,,---,0.00,VWS V14.01,2013-03-15 12:24:00,
2013-03-15 08:29:00,7.1,1.1,29.85,NE,45,0.0,0.0,76,0.00,,---,0.00,VWS V14.01,2013-03-15 12:29:00,
2013-03-15 08:34:00,7.1,1.4,29.85,NE,45,0.0,0.0,77,0.00,,---,0.00,VWS V14.01,2013-03-15 12:34:00,
2013-03-15 08:39:00,7.5,1.8,29.85,NE,45,0.0,0.0,77,0.00,,---,0.00,VWS V14.01,2013-03-15 12:39:00,
2013-03-15 08:44:00,7.7,2.0,29.85,NE,45,0.0,0.0,77,0.00,,---,0.00,VWS V14.01,2013-03-15 12:44:00,
2013-03-15 08:49:00,8.2,2.5,29.84,NE,45,0.0,0.0,77,0.00,,---,0.00,VWS V14.01,2013-03-15 12:49:00,
2013-03-15 08:54:00,8.6,2.9,29.84,NE,45,0.0,0.0,77,0.00,,---,0.00,VWS V14.01,2013-03-15 12:54:00,
2013-03-15 08:59:00,8.9,3.2,29.84,NE,45,0.0,0.0,77,0.00,,---,0.00,VWS V14.01,2013-03-15 12:59:00,
2013-03-15 09:04:00,9.3,3.8,29.84,SE,135,0.0,0.0,78,0.00,,---,0.00,VWS V14.01,2013-03-15 13:04:00,
2013-03-15 09:09:00,9.6,4.1,29.84,SE,135,0.0,0.0,78,0.00,,---,0.00,VWS V14.01,2013-03-15 13:09:00,
2013-03-15 09:14:00,10.0,4.5,29.83,SE,135,0.0,0.0,78,0.00,,---,0.00,VWS V14.01,2013-03-15 13:14:00,
2013-03-15 09:19:00,10.5,5.0,29.82,SE,135,0.0,0.0,78,0.00,,---,0.00,VWS V14.01,2013-03-15 13:19:00,
2013-03-15 09:24:00,11.1,5.6,29.82,West,270,0.0,0.0,78,0.00,,---,0.00,VWS V14.01,2013-03-15 13:24:00,
2013-03-15 09:29:00,11.4,5.9,29.82,NNE,22,0.0,0.0,78,0.00,,---,0.00,VWS V14.01,2013-03-15 13:29:00,
2013-03-15 09:34:00,12.3,6.8,29.81,NW,315,4.2,4.2,78,0.00,,---,0.00,VWS V14.01,2013-03-15 13:34:00,
2013-03-15 09:39:00,12.7,6.9,29.81,NW,315,0.0,0.0,77,0.00,,---,0.00,VWS V14.01,2013-03-15 13:39:00,
2013-03-15 09:44:00,13.2,7.3,29.81,NW,315,0.0,0.0,77,0.00,,---,0.00,VWS V14.01,2013-03-15 13:44:00,
2013-03-15 09:49:00,13.8,7.9,29.81,NNW,338,0.0,0.0,77,0.00,,---,0.00,VWS V14.01,2013-03-15 13:49:00,
2013-03-15 09:54:00,14.1,7.9,29.81,NW,315,0.0,0.0,76,0.00,,---,0.00,VWS V14.01,2013-03-15 13:54:00,
2013-03-15 09:59:00,14.5,8.3,29.81,WNW,292,0.0,0.0,76,0.00,,---,0.00,VWS V14.01,2013-03-15 13:59:00,
2013-03-15 10:04:00,15.0,8.5,29.81,NW,315,0.8,0.8,75,0.00,,---,0.00,VWS V14.01,2013-03-15 14:04:00,
2013-03-15 10:09:00,15.4,8.9,29.81,NNW,338,3.8,3.8,75,0.00,,---,0.00,VWS V14.01,2013-03-15 14:09:00,
2013-03-15 10:14:00,15.9,9.4,29.81,NNW,338,0.0,0.0,75,0.00,,---,0.00,VWS V14.01,2013-03-15 14:14:00,
2013-03-15 10:19:00,16.3,9.8,29.80,NNW,338,0.0,0.0,75,0.00,,---,0.00,VWS V14.01,2013-03-15 14:19:00,
2013-03-15 10:24:00,16.7,9.9,29.80,NW,315,0.0,0.0,74,0.00,,---,0.00,VWS V14.01,2013-03-15 14:24:00,
2013-03-15 10:29:00,17.2,10.4,29.80,NW,315,0.0,0.0,74,0.00,,---,0.00,VWS V14.01,2013-03-15 14:29:00,
2013-03-15 10:34:00,17.7,10.8,29.80,SE,135,0.0,0.0,74,0.00,,---,0.00,VWS V14.01,2013-03-15 14:34:00,
2013-03-15 10:39:00,18.3,11.4,29.79,NW,315,0.0,0.0,74,0.00,,---,0.00,VWS V14.01,2013-03-15 14:39:00,
2013-03-15 10:44:00,18.6,11.7,29.79,ESE,112,0.0,0.0,74,0.00,,---,0.00,VWS V14.01,2013-03-15 14:44:00,
2013-03-15 10:49:00,19.2,12.3,29.78,NNW,338,0.0,0.0,74,0.00,,---,0.00,VWS V14.01,2013-03-15 14:49:00,
2013-03-15 10:54:00,19.5,12.6,29.78,NW,315,0.0,0.0,74,0.00,,---,0.00,VWS V14.01,2013-03-15 14:54:00,
2013-03-15 10:59:00,19.9,13.0,29.78,WNW,292,0.0,0.0,74,0.00,,---,0.00,VWS V14.01,2013-03-15 14:59:00,
2013-03-15 11:04:00,20.3,13.4,29.77,NW,315,0.0,0.0,74,0.00,,---,0.00,VWS V14.01,2013-03-15 15:04:00,
2013-03-15 11:09:00,20.4,13.4,29.77,NNW,338,0.0,0.0,74,0.00,,---,0.00,VWS V14.01,2013-03-15 15:09:00,
2013-03-15 11:14:00,20.8,13.8,29.76,NNW,338,0.0,0.0,74,0.00,,---,0.00,VWS V14.01,2013-03-15 15:14:00,
2013-03-15 11:19:00,21.0,13.7,29.75,WNW,292,0.0,0.0,73,0.00,,---,0.00,VWS V14.01,2013-03-15 15:19:00,
2013-03-15 11:24:00,21.3,14.0,29.75,NNW,338,0.0,0.0,73,0.00,,---,0.00,VWS V14.01,2013-03-15 15:24:00,
2013-03-15 11:29:00,21.5,14.2,29.75,NW,315,2.0,2.0,73,0.00,,---,0.00,VWS V14.01,2013-03-15 15:29:00,
2013-03-15 11:34:00,21.7,14.7,29.74,NNE,22,0.0,0.0,74,0.00,,---,0.00,VWS V14.01,2013-03-15 15:34:00,
2013-03-15 11:39:00,21.9,14.9,29.74,West,270,0.0,0.0,74,0.00,,---,0.00,VWS V14.01,2013-03-15 15:39:00,
2013-03-15 11:44:00,22.2,15.2,29.74,NW,315,0.0,0.0,74,0.00,,---,0.00,VWS V14.01,2013-03-15 15:44:00,
2013-03-15 11:49:00,22.6,15.6,29.73,WNW,292,0.0,0.0,74,0.00,,---,0.00,VWS V14.01,2013-03-15 15:49:00,
2013-03-15 11:54:00,22.8,15.8,29.73,NW,315,0.0,0.0,74,0.00,,---,0.00,VWS V14.01,2013-03-15 15:54:00,
2013-03-15 11:59:00,23.1,16.4,29.73,NNW,338,0.0,0.0,75,0.00,,---,0.00,VWS V14.01,2013-03-15 15:59:00,
2013-03-15 12:04:00,23.5,16.8,29.73,NW,315,0.0,0.0,75,0.00,,---,0.00,VWS V14.01,2013-03-15 16:04:00,
2013-03-15 12:09:00,23.9,17.1,29.73,NW,315,0.0,0.0,75,0.00,,---,0.00,VWS V14.01,2013-03-15 16:09:00,
2013-03-15 12:14:00,24.0,17.2,29.73,NW,315,0.6,0.6,75,0.00,,---,0.00,VWS V14.01,2013-03-15 16:14:00,
2013-03-15 12:19:00,24.4,17.6,29.72,NNW,338,0.0,0.0,75,0.00,,---,0.00,VWS V14.01,2013-03-15 16:19:00,
2013-03-15 12:24:00,24.6,17.8,29.72,WNW,292,0.0,0.0,75,0.00,,---,0.00,VWS V14.01,2013-03-15 16:24:00,
2013-03-15 12:29:00,24.9,18.1,29.72,SE,135,0.0,0.0,75,0.00,,---,0.00,VWS V14.01,2013-03-15 16:29:00,
2013-03-15 12:34:00,25.1,18.3,29.71,WNW,292,0.0,0.0,75,0.00,,---,0.00,VWS V14.01,2013-03-15 16:34:00,
2013-03-15 12:39:00,25.5,19.0,29.71,NW,315,0.0,0.0,76,0.00,,---,0.00,VWS V14.01,2013-03-15 16:39:00,
2013-03-15 12:44:00,25.5,19.0,29.70,NW,315,0.0,0.0,76,0.00,,---,0.00,VWS V14.01,2013-03-15 16:44:00,
2013-03-15 12:49:00,25.8,19.3,29.70,SW,225,0.0,0.0,76,0.00,,---,0.00,VWS V14.01,2013-03-15 16:49:00,
2013-03-15 12:54:00,26.2,19.7,29.70,SSE,158,0.0,0.0,76,0.00,,---,0.00,VWS V14.01,2013-03-15 16:54:00,
2013-03-15 12:59:00,26.2,19.7,29.70,SE,135,8.7,8.7,76,0.00,,---,0.00,VWS V14.01,2013-03-15 16:59:00,
2013-03-15 13:04:00,26.4,19.9,29.69,SE,135,0.0,0.0,76,0.00,,---,0.00,VWS V14.01,2013-03-15 17:04:00,
2013-03-15 13:09:00,26.7,20.5,29.69,South,180,0.0,0.0,77,0.00,,---,0.00,VWS V14.01,2013-03-15 17:09:00,
2013-03-15 13:14:00,26.9,20.7,29.68,SE,135,7.6,7.6,77,0.00,,---,0.00,VWS V14.01,2013-03-15 17:14:00,
2013-03-15 13:19:00,27.1,20.5,29.68,NNE,22,0.0,0.0,76,0.00,,---,0.00,VWS V14.01,2013-03-15 17:19:00,
2013-03-15 13:24:00,27.1,20.5,29.68,NNW,338,0.0,0.0,76,0.00,,---,0.00,VWS V14.01,2013-03-15 17:24:00,
2013-03-15 13:29:00,27.1,20.5,29.68,NNW,338,0.0,0.0,76,0.00,,---,0.00,VWS V14.01,2013-03-15 17:29:00,
2013-03-15 13:35:00,27.3,20.8,29.68,North,0,0.0,0.0,76,0.00,,---,0.00,VWS V14.01,2013-03-15 17:35:00,
2013-03-15 13:40:00,27.3,20.8,29.67,SE,135,10.0,10.0,76,0.00,,---,0.00,VWS V14.01,2013-03-15 17:40:00,
2013-03-15 13:45:00,27.3,21.1,29.68,WNW,292,0.0,0.0,77,0.00,,---,0.00,VWS V14.01,2013-03-15 17:45:00,
2013-03-15 13:50:00,27.5,21.2,29.67,WNW,292,0.0,0.0,77,0.00,,---,0.00,VWS V14.01,2013-03-15 17:50:00,
2013-03-15 13:55:00,27.5,21.2,29.67,WNW,292,0.0,0.0,77,0.00,,---,0.00,VWS V14.01,2013-03-15 17:55:00,
2013-03-15 14:00:00,27.5,21.2,29.67,WNW,292,0.0,0.0,77,0.00,,---,0.00,VWS V14.01,2013-03-15 18:00:00,
2013-03-15 14:05:00,27.6,21.4,29.66,NW,315,4.2,4.2,77,0.00,,---,0.00,VWS V14.01,2013-03-15 18:05:00,
2013-03-15 14:10:00,27.6,21.4,29.66,NNW,338,0.0,0.0,77,0.00,,---,0.00,VWS V14.01,2013-03-15 18:10:00,
2013-03-15 14:15:00,27.6,21.4,29.66,North,0,0.0,0.0,77,0.00,,---,0.00,VWS V14.01,2013-03-15 18:15:00,
2013-03-15 14:20:00,28.0,21.7,29.65,NW,315,0.0,0.0,77,0.00,,---,0.00,VWS V14.01,2013-03-15 18:20:00,
2013-03-15 14:25:00,28.2,21.9,29.65,WNW,292,0.0,0.0,77,0.00,,---,0.00,VWS V14.01,2013-03-15 18:25:00,
2013-03-15 14:38:00,28.2,21.9,29.64,NW,315,6.0,6.0,77,0.00,,---,0.00,VWS V14.01,2013-03-15 18:38:00,
2013-03-15 14:43:00,28.2,22.2,29.64,NW,315,0.0,0.0,78,0.00,,---,0.00,VWS V14.01,2013-03-15 18:43:00,
2013-03-15 14:48:00,28.2,22.2,29.64,WNW,292,0.0,0.0,78,0.00,,---,0.00,VWS V14.01,2013-03-15 18:48:00,
2013-03-15 14:53:00,28.5,22.5,29.64,North,0,0.0,0.0,78,0.00,,---,0.00,VWS V14.01,2013-03-15 18:53:00,
2013-03-15 14:58:00,28.5,22.5,29.64,NW,315,0.0,0.0,78,0.00,,---,0.00,VWS V14.01,2013-03-15 18:58:00,
2013-03-15 15:03:00,28.5,22.5,29.64,NNW,338,0.0,0.0,78,0.00,,---,0.00,VWS V14.01,2013-03-15 19:03:00,
2013-03-15 15:11:00,28.5,22.5,29.64,SE,135,0.0,0.0,78,0.00,,---,0.00,VWS V14.01,2013-03-15 19:11:00,
2013-03-15 15:16:00,28.5,22.5,29.64,NNW,338,0.0,0.0,78,0.00,,---,0.00,VWS V14.01,2013-03-15 19:16:00,
2013-03-15 15:24:00,28.5,22.8,29.64,South,180,0.0,0.0,79,0.00,,---,0.00,VWS V14.01,2013-03-15 19:24:00,
2013-03-15 15:29:00,28.5,22.8,29.63,North,0,0.0,0.0,79,0.00,,---,0.00,VWS V14.01,2013-03-15 19:29:00,
2013-03-15 15:34:00,28.5,22.8,29.63,NNW,338,0.0,0.0,79,0.00,,---,0.00,VWS V14.01,2013-03-15 19:34:00,
2013-03-15 15:56:00,28.9,23.5,29.63,NW,315,4.2,4.2,80,0.00,,---,0.00,VWS V14.01,2013-03-15 19:56:00,
2013-03-15 16:02:00,28.7,23.3,29.63,NW,315,0.0,0.0,80,0.00,,---,0.00,VWS V14.01,2013-03-15 20:02:00,
2013-03-15 16:07:00,28.7,23.3,29.63,NW,315,0.0,0.0,80,0.00,,---,0.00,VWS V14.01,2013-03-15 20:07:00,
2013-03-15 16:12:00,28.7,23.3,29.63,NNE,22,0.0,0.0,80,0.00,,---,0.00,VWS V14.01,2013-03-15 20:12:00,
2013-03-15 16:17:00,28.7,23.3,29.63,NNW,338,0.0,0.0,80,0.00,,---,0.00,VWS V14.01,2013-03-15 20:17:00,
2013-03-15 16:22:00,28.7,23.3,29.63,West,270,0.0,0.0,80,0.00,,---,0.00,VWS V14.01,2013-03-15 20:22:00,
2013-03-15 16:27:00,28.7,23.3,29.63,WNW,292,0.0,0.0,80,0.00,,---,0.00,VWS V14.01,2013-03-15 20:27:00,
2013-03-15 16:32:00,28.5,23.4,29.63,SW,225,0.0,0.0,81,0.00,,---,0.00,VWS V14.01,2013-03-15 20:32:00,
2013-03-15 16:37:00,28.5,23.4,29.63,NNW,338,0.0,0.0,81,0.00,,---,0.00,VWS V14.01,2013-03-15 20:37:00,
2013-03-15 16:42:00,28.5,23.4,29.63,NW,315,4.0,4.0,81,0.00,,---,0.00,VWS V14.01,2013-03-15 20:42:00,
2013-03-15 16:49:00,28.5,23.4,29.63,NNW,338,0.0,0.0,81,0.00,,---,0.00,VWS V14.01,2013-03-15 20:49:00,
2013-03-15 16:54:00,28.5,23.4,29.63,NW,315,7.6,7.6,81,0.02,,---,0.02,VWS V14.01,2013-03-15 20:54:00,
2013-03-15 16:59:00,28.5,23.1,29.64,NW,315,12.0,12.0,80,0.02,,---,0.02,VWS V14.01,2013-03-15 20:59:00,
2013-03-15 17:04:00,28.7,23.3,29.63,WSW,248,0.0,0.0,80,0.02,,---,0.02,VWS V14.01,2013-03-15 21:04:00,
2013-03-15 17:09:00,29.3,23.9,29.63,NW,315,8.9,8.9,80,0.02,,---,0.02,VWS V14.01,2013-03-15 21:09:00,
2013-03-15 17:14:00,29.4,23.7,29.63,WSW,248,1.5,1.5,79,0.02,,---,0.02,VWS V14.01,2013-03-15 21:14:00,
2013-03-15 17:19:00,30.0,24.3,29.62,WSW,248,0.0,0.0,79,0.02,,---,0.02,VWS V14.01,2013-03-15 21:19:00,
2013-03-15 17:24:00,30.2,24.2,29.62,NE,45,0.0,0.0,78,0.02,,---,0.02,VWS V14.01,2013-03-15 21:24:00,
2013-03-15 17:29:00,30.2,24.2,29.62,NNW,338,0.0,0.0,78,0.02,,---,0.02,VWS V14.01,2013-03-15 21:29:00,
2013-03-15 17:35:00,30.0,24.0,29.62,NNW,338,0.0,0.0,78,0.02,,---,0.02,VWS V14.01,2013-03-15 21:35:00,
2013-03-15 17:40:00,29.8,23.8,29.62,WNW,292,0.0,0.0,78,0.02,,---,0.02,VWS V14.01,2013-03-15 21:40:00,
2013-03-15 17:45:00,29.4,23.4,29.63,NW,315,0.0,0.0,78,0.02,,---,0.02,VWS V14.01,2013-03-15 21:45:00,
2013-03-15 17:50:00,29.3,23.6,29.63,NNW,338,0.0,0.0,79,0.00,,---,0.02,VWS V14.01,2013-03-15 21:50:00,
2013-03-15 17:55:00,29.1,23.4,29.63,NW,315,0.6,0.6,79,0.00,,---,0.02,VWS V14.01,2013-03-15 21:55:00,
2013-03-15 18:00:00,28.9,23.2,29.63,North,0,0.0,0.0,79,0.00,,---,0.02,VWS V14.01,2013-03-15 22:00:00,
2013-03-15 18:05:00,28.9,23.5,29.63,NNW,338,2.0,2.0,80,0.00,,---,0.02,VWS V14.01,2013-03-15 22:05:00,
2013-03-15 18:10:00,28.7,23.3,29.63,NW,315,0.0,0.0,80,0.00,,---,0.02,VWS V14.01,2013-03-15 22:10:00,
2013-03-15 18:15:00,28.7,23.3,29.64,NW,315,5.5,5.5,80,0.00,,---,0.02,VWS V14.01,2013-03-15 22:15:00,
2013-03-15 18:20:00,28.5,23.4,29.64,NNW,338,0.0,0.0,81,0.00,,---,0.02,VWS V14.01,2013-03-15 22:20:00,
2013-03-15 18:25:00,28.2,23.1,29.64,NW,315,3.8,3.8,81,0.00,,---,0.02,VWS V14.01,2013-03-15 22:25:00,
2013-03-15 18:30:00,28.0,22.9,29.64,NW,315,4.2,4.2,81,0.00,,---,0.02,VWS V14.01,2013-03-15 22:30:00,
2013-03-15 18:35:00,28.0,22.9,29.64,North,0,3.3,3.3,81,0.00,,---,0.02,VWS V14.01,2013-03-15 22:35:00,
2013-03-15 18:40:00,28.0,22.9,29.64,WNW,292,2.2,2.2,81,0.00,,---,0.02,VWS V14.01,2013-03-15 22:40:00,
2013-03-15 18:45:00,28.0,22.9,29.64,NW,315,5.5,5.5,81,0.00,,---,0.02,VWS V14.01,2013-03-15 22:45:00,
2013-03-15 18:50:00,27.6,22.5,29.65,WSW,248,0.0,0.0,81,0.00,,---,0.02,VWS V14.01,2013-03-15 22:50:00,
2013-03-15 18:55:00,27.6,22.5,29.67,SSW,202,0.0,0.0,81,0.00,,---,0.02,VWS V14.01,2013-03-15 22:55:00,
2013-03-15 19:00:00,27.6,22.5,29.67,NW,315,5.3,5.3,81,0.00,,---,0.02,VWS V14.01,2013-03-15 23:00:00,
2013-03-15 19:05:00,27.6,22.5,29.67,WNW,292,0.0,0.0,81,0.00,,---,0.02,VWS V14.01,2013-03-15 23:05:00,
2013-03-15 19:10:00,27.5,22.5,29.68,WNW,292,0.0,0.0,81,0.00,,---,0.02,VWS V14.01,2013-03-15 23:10:00,
2013-03-15 19:15:00,27.3,22.2,29.68,SE,135,0.0,0.0,81,0.00,,---,0.02,VWS V14.01,2013-03-15 23:15:00,
2013-03-15 19:20:00,27.1,21.8,29.68,NNW,338,0.0,0.0,80,0.00,,---,0.02,VWS V14.01,2013-03-15 23:20:00,
2013-03-15 19:25:00,26.9,21.6,29.68,South,180,0.0,0.0,80,0.00,,---,0.02,VWS V14.01,2013-03-15 23:25:00,
2013-03-15 19:30:00,26.7,21.4,29.69,NW,315,2.0,2.0,80,0.00,,---,0.02,VWS V14.01,2013-03-15 23:30:00,
2013-03-15 19:36:00,26.7,21.4,29.69,NW,315,0.0,0.0,80,0.00,,---,0.02,VWS V14.01,2013-03-15 23:36:00,
2013-03-15 19:41:00,26.6,21.3,29.69,WNW,292,0.0,0.0,80,0.00,,---,0.02,VWS V14.01,2013-03-15 23:41:00,
2013-03-15 19:46:00,26.4,21.1,29.70,NW,315,0.0,0.0,80,0.00,,---,0.02,VWS V14.01,2013-03-15 23:46:00,
2013-03-15 19:51:00,26.4,20.8,29.70,NW,315,0.0,0.0,79,0.00,,---,0.02,VWS V14.01,2013-03-15 23:51:00,
2013-03-15 19:56:00,26.2,20.6,29.70,NW,315,0.0,0.0,79,0.00,,---,0.02,VWS V14.01,2013-03-15 23:56:00,
2013-03-15 20:01:00,26.2,20.6,29.70,NW,315,0.0,0.0,79,0.00,,---,0.02,VWS V14.01,2013-03-16 00:01:00,
2013-03-15 20:06:00,26.0,20.4,29.71,North,0,0.0,0.0,79,0.00,,---,0.02,VWS V14.01,2013-03-16 00:06:00,
2013-03-15 20:11:00,25.8,20.2,29.71,North,0,0.0,0.0,79,0.00,,---,0.02,VWS V14.01,2013-03-16 00:11:00,
2013-03-15 20:16:00,25.7,20.4,29.71,NNW,338,0.0,0.0,80,0.00,,---,0.02,VWS V14.01,2013-03-16 00:16:00,
2013-03-15 20:21:00,25.7,20.4,29.72,NNE,22,0.0,0.0,80,0.00,,---,0.02,VWS V14.01,2013-03-16 00:21:00,
2013-03-15 20:26:00,25.5,20.2,29.72,ESE,112,0.0,0.0,80,0.00,,---,0.02,VWS V14.01,2013-03-16 00:26:00,
2013-03-15 20:31:00,25.5,20.2,29.72,WNW,292,0.0,0.0,80,0.00,,---,0.02,VWS V14.01,2013-03-16 00:31:00,
2013-03-15 20:36:00,25.3,20.0,29.73,NNE,22,0.0,0.0,80,0.00,,---,0.02,VWS V14.01,2013-03-16 00:36:00,
2013-03-15 20:42:00,25.1,19.8,29.72,NW,315,0.0,0.0,80,0.00,,---,0.02,VWS V14.01,2013-03-16 00:42:00,
2013-03-15 20:47:00,24.9,19.6,29.73,NW,315,0.0,0.0,80,0.00,,---,0.02,VWS V14.01,2013-03-16 00:47:00,
2013-03-15 20:52:00,24.9,19.6,29.73,NW,315,0.0,0.0,80,0.00,,---,0.02,VWS V14.01,2013-03-16 00:52:00,
2013-03-15 20:57:00,24.9,19.6,29.74,NW,315,0.0,0.0,80,0.00,,---,0.02,VWS V14.01,2013-03-16 00:57:00,
2013-03-15 21:02:00,24.6,19.3,29.74,East,90,0.0,0.0,80,0.00,,---,0.02,VWS V14.01,2013-03-16 01:02:00,
2013-03-15 21:07:00,24.6,19.0,29.74,NNW,338,0.0,0.0,79,0.00,,---,0.02,VWS V14.01,2013-03-16 01:07:00,
2013-03-15 21:12:00,24.4,18.8,29.74,NW,315,0.0,0.0,79,0.00,,---,0.02,VWS V14.01,2013-03-16 01:12:00,
2013-03-15 21:17:00,24.4,18.8,29.75,NNE,22,0.0,0.0,79,0.00,,---,0.02,VWS V14.01,2013-03-16 01:17:00,
2013-03-15 21:22:00,24.2,18.6,29.75,NW,315,0.0,0.0,79,0.00,,---,0.02,VWS V14.01,2013-03-16 01:22:00,
2013-03-15 21:27:00,24.0,18.1,29.75,NW,315,0.0,0.0,78,0.00,,---,0.02,VWS V14.01,2013-03-16 01:27:00,
2013-03-15 21:32:00,23.9,18.0,29.75,NNE,22,0.0,0.0,78,0.00,,---,0.02,VWS V14.01,2013-03-16 01:32:00,
2013-03-15 21:37:00,23.9,18.0,29.75,NW,315,0.0,0.0,78,0.00,,---,0.02,VWS V14.01,2013-03-16 01:37:00,
2013-03-15 21:42:00,23.7,17.6,29.76,NNE,22,0.0,0.0,77,0.00,,---,0.02,VWS V14.01,2013-03-16 01:42:00,
2013-03-15 21:47:00,23.5,17.4,29.76,NW,315,0.0,0.0,77,0.00,,---,0.02,VWS V14.01,2013-03-16 01:47:00,
2013-03-15 21:52:00,23.5,17.1,29.76,SE,135,0.0,0.0,76,0.00,,---,0.02,VWS V14.01,2013-03-16 01:52:00,
2013-03-15 21:57:00,23.1,16.7,29.76,NW,315,0.0,0.0,76,0.00,,---,0.02,VWS V14.01,2013-03-16 01:57:00,
2013-03-15 22:02:00,23.0,16.6,29.76,NNE,22,0.0,0.0,76,0.00,,---,0.02,VWS V14.01,2013-03-16 02:02:00,
2013-03-15 22:07:00,22.8,16.4,29.76,NW,315,0.0,0.0,76,0.00,,---,0.02,VWS V14.01,2013-03-16 02:07:00,
2013-03-15 22:12:00,22.6,16.2,29.77,NNW,338,0.0,0.0,76,0.00,,---,0.02,VWS V14.01,2013-03-16 02:12:00,
2013-03-15 22:17:00,22.4,15.7,29.77,NE,45,0.0,0.0,75,0.00,,---,0.02,VWS V14.01,2013-03-16 02:17:00,
2013-03-15 22:22:00,22.1,15.4,29.77,NE,45,0.0,0.0,75,0.00,,---,0.02,VWS V14.01,2013-03-16 02:22:00,
2013-03-15 22:27:00,21.9,15.2,29.77,NE,45,0.0,0.0,75,0.00,,---,0.02,VWS V14.01,2013-03-16 02:27:00,
2013-03-15 22:32:00,21.9,15.2,29.79,NE,45,0.0,0.0,75,0.00,,---,0.02,VWS V14.01,2013-03-16 02:32:00,
2013-03-15 22:37:00,21.9,15.2,29.79,North,0,0.0,0.0,75,0.00,,---,0.02,VWS V14.01,2013-03-16 02:37:00,
2013-03-15 22:42:00,21.7,15.0,29.79,NNW,338,0.0,0.0,75,0.00,,---,0.02,VWS V14.01,2013-03-16 02:42:00,
2013-03-15 22:47:00,21.5,14.8,29.79,North,0,0.0,0.0,75,0.00,,---,0.02,VWS V14.01,2013-03-16 02:47:00,
2013-03-15 22:53:00,21.3,14.6,29.79,NNW,338,0.0,0.0,75,0.00,,---,0.02,VWS V14.01,2013-03-16 02:53:00,
2013-03-15 22:58:00,21.3,14.6,29.79,NNW,338,0.0,0.0,75,0.00,,---,0.02,VWS V14.01,2013-03-16 02:58:00,
2013-03-15 23:03:00,21.3,14.6,29.79,North,0,0.0,0.0,75,0.00,,---,0.02,VWS V14.01,2013-03-16 03:03:00,
2013-03-15 23:08:00,21.0,14.3,29.79,NW,315,0.0,0.0,75,0.00,,---,0.02,VWS V14.01,2013-03-16 03:08:00,
2013-03-15 23:13:00,21.0,14.3,29.80,South,180,0.0,0.0,75,0.00,,---,0.02,VWS V14.01,2013-03-16 03:13:00,
2013-03-15 23:18:00,20.8,14.1,29.80,WNW,292,0.0,0.0,75,0.00,,---,0.02,VWS V14.01,2013-03-16 03:18:00,
2013-03-15 23:23:00,20.8,14.1,29.80,NW,315,0.0,0.0,75,0.00,,---,0.02,VWS V14.01,2013-03-16 03:23:00,
2013-03-15 23:28:00,20.8,14.1,29.80,NW,315,0.0,0.0,75,0.00,,---,0.02,VWS V14.01,2013-03-16 03:28:00,
2013-03-15 23:33:00,20.6,13.9,29.80,WNW,292,0.0,0.0,75,0.00,,---,0.02,VWS V14.01,2013-03-16 03:33:00,
2013-03-15 23:38:00,20.4,13.8,29.80,WNW,292,0.0,0.0,75,0.00,,---,0.02,VWS V14.01,2013-03-16 03:38:00,
2013-03-15 23:43:00,20.4,13.8,29.81,WNW,292,0.0,0.0,75,0.00,,---,0.02,VWS V14.01,2013-03-16 03:43:00,
2013-03-15 23:48:00,20.3,13.4,29.81,WNW,292,0.0,0.0,74,0.00,,---,0.02,VWS V14.01,2013-03-16 03:48:00,
2013-03-15 23:53:00,20.1,13.2,29.81,WNW,292,0.0,0.0,74,0.00,,---,0.02,VWS V14.01,2013-03-16 03:53:00,
2013-03-15 23:58:00,20.1,13.2,29.81,WNW,292,0.0,0.0,74,0.00,,---,0.02,VWS V14.01,2013-03-16 03:58:00,